�������l�o���
Date,Time,MP-1(��Sv/h),MP-2(��Sv/h),MP-3(��Sv/h),MP-4(��Sv/h),MP-5(��Sv/h),MP-6(��Sv/h),MP-7(��Sv/h),MP-8(��Sv/h),����,����(m/s),���J
2021/07/28,00:00,0.565,0.824,0.537,1.001,0.674,0.353,0.601,0.564,�k,10.7,�L
2021/07/28,00:10,0.569,0.827,0.538,1.007,0.676,0.354,0.604,0.567,�k,9.5,�L
2021/07/28,00:20,0.569,0.825,0.538,1.004,0.676,0.355,0.604,0.572,�k�k��,10.9,�L
2021/07/28,00:30,0.563,0.820,0.533,1.001,0.675,0.352,0.602,0.569,�k�k��,10.8,�L
2021/07/28,00:40,0.559,0.814,0.531,0.994,0.672,0.351,0.599,0.569,�k�k��,12.4,�L
2021/07/28,00:50,0.561,0.817,0.531,0.998,0.673,0.351,0.600,0.568,�k�k��,9.9,�L
2021/07/28,01:00,0.566,0.820,0.535,1.004,0.675,0.354,0.603,0.571,�k��,10.3,�L
2021/07/28,01:10,0.569,0.823,0.537,1.008,0.679,0.353,0.604,0.571,�k�k��,8.3,�L
2021/07/28,01:20,0.571,0.824,0.537,1.009,0.680,0.355,0.605,0.572,�k��,9.1,�L
2021/07/28,01:30,0.572,0.828,0.538,1.014,0.685,0.356,0.605,0.573,�k��,10.8,�L
2021/07/28,01:40,0.572,0.830,0.538,1.019,0.688,0.354,0.608,0.574,�k��,9.8,�L
2021/07/28,01:50,0.571,0.827,0.539,1.019,0.683,0.356,0.607,0.574,�k��,8.8,�L
2021/07/28,02:00,0.572,0.829,0.538,1.022,0.686,0.355,0.606,0.575,�k��,9.9,�L
2021/07/28,02:10,0.574,0.830,0.539,1.024,0.689,0.355,0.610,0.574,�k��,10.2,�L
2021/07/28,02:20,0.575,0.834,0.540,1.028,0.693,0.354,0.609,0.573,�k��,10.2,��
2021/07/28,02:30,0.576,0.833,0.541,1.030,0.691,0.355,0.611,0.574,���k��,9.1,��
2021/07/28,02:40,0.576,0.835,0.540,1.031,0.695,0.356,0.611,0.575,���k��,10.0,��
2021/07/28,02:50,0.576,0.836,0.542,1.036,0.695,0.356,0.610,0.576,���k��,7.8,��
2021/07/28,03:00,0.575,0.834,0.540,1.037,0.698,0.358,0.612,0.575,���k��,11.3,�L
2021/07/28,03:10,0.573,0.832,0.540,1.039,0.697,0.356,0.611,0.577,���k��,8.2,�L
2021/07/28,03:20,0.573,0.832,0.542,1.038,0.697,0.358,0.610,0.575,���k��,10.5,��
2021/07/28,03:30,0.574,0.833,0.542,1.038,0.700,0.356,0.611,0.577,���k��,11.6,��
2021/07/28,03:40,0.575,0.834,0.541,1.043,0.702,0.357,0.613,0.575,���k��,8.4,�L
2021/07/28,03:50,0.579,0.836,0.544,1.043,0.701,0.357,0.614,0.576,��,8.6,�L
2021/07/28,04:00,0.578,0.838,0.543,1.046,0.703,0.356,0.614,0.578,��,8.9,��
2021/07/28,04:10,0.578,0.838,0.543,1.046,0.704,0.357,0.613,0.576,��,7.7,��
2021/07/28,04:20,0.579,0.837,0.544,1.048,0.705,0.358,0.613,0.578,���k��,8.0,��
2021/07/28,04:30,0.578,0.839,0.546,1.048,0.708,0.356,0.614,0.577,���k��,6.3,��
2021/07/28,04:40,0.579,0.839,0.546,1.049,0.706,0.357,0.613,0.579,��,4.0,��
2021/07/28,04:50,0.580,0.841,0.545,1.050,0.709,0.356,0.617,0.577,���쐼,4.9,��
2021/07/28,05:00,0.578,0.840,0.548,1.052,0.709,0.358,0.614,0.577,���쐼,5.6,��
2021/07/28,05:10,0.580,0.843,0.548,1.052,0.710,0.358,0.615,0.579,���쐼,3.6,��
2021/07/28,05:20,0.580,0.841,0.548,1.054,0.711,0.357,0.617,0.578,���쐼,2.3,��
2021/07/28,05:30,0.582,0.843,0.548,1.055,0.713,0.359,0.616,0.581,��,6.1,��
2021/07/28,05:40,0.582,0.843,0.548,1.056,0.712,0.357,0.617,0.579,��,6.1,��
2021/07/28,05:50,0.582,0.844,0.548,1.054,0.713,0.359,0.616,0.582,���쐼,5.9,��
2021/07/28,06:00,0.582,0.845,0.548,1.057,0.717,0.358,0.617,0.580,���쐼,4.5,��
2021/07/28,06:10,0.582,0.845,0.550,1.057,0.716,0.358,0.618,0.581,�쐼,4.8,��
2021/07/28,06:20,0.583,0.845,0.549,1.053,0.717,0.358,0.617,0.579,���쐼,6.1,��
2021/07/28,06:30,0.582,0.845,0.549,1.058,0.718,0.359,0.617,0.581,���쐼,7.2,��
2021/07/28,06:40,0.584,0.847,0.550,1.058,0.717,0.359,0.618,0.582,���쐼,7.6,��
2021/07/28,06:50,0.582,0.846,0.549,1.058,0.717,0.358,0.616,0.581,���쐼,8.5,��
2021/07/28,07:00,0.583,0.846,0.549,1.059,0.716,0.358,0.618,0.580,���쐼,4.3,��
2021/07/28,07:10,0.584,0.846,0.550,1.057,0.718,0.359,0.619,0.581,��쓌,2.0,��
2021/07/28,07:20,0.584,0.848,0.551,1.059,0.718,0.359,0.618,0.581,��쓌,2.3,��
2021/07/28,07:30,0.583,0.849,0.551,1.059,0.720,0.359,0.619,0.582,��쓌,2.0,��
2021/07/28,07:40,0.585,0.849,0.550,1.057,0.719,0.359,0.619,0.581,��쓌,5.6,��
2021/07/28,07:50,0.586,0.847,0.549,1.060,0.721,0.360,0.620,0.582,��,5.5,��
2021/07/28,08:00,0.586,0.847,0.552,1.059,0.722,0.360,0.621,0.582,��쐼,5.4,��
2021/07/28,08:10,0.586,0.847,0.551,1.060,0.724,0.359,0.622,0.582,��,5.8,��
2021/07/28,08:20,0.585,0.850,0.551,1.060,0.724,0.361,0.621,0.581,��,6.0,��
2021/07/28,08:30,0.587,0.851,0.551,1.061,0.724,0.361,0.622,0.583,��,6.1,��
2021/07/28,08:40,0.589,0.851,0.555,1.061,0.726,0.361,0.620,0.582,��,3.8,��
2021/07/28,08:50,0.589,0.850,0.552,1.063,0.725,0.362,0.623,0.583,��,4.6,��
2021/07/28,09:00,0.590,0.854,0.555,1.061,0.725,0.362,0.623,0.583,��,4.7,��
2021/07/28,09:10,0.589,0.854,0.555,1.063,0.725,0.362,0.622,0.581,��,5.4,��
2021/07/28,09:20,0.589,0.852,0.554,1.065,0.729,0.362,0.623,0.583,��쓌,6.7,��
2021/07/28,09:30,0.590,0.854,0.554,1.063,0.729,0.361,0.624,0.584,��,7.5,��
2021/07/28,09:40,0.590,0.854,0.553,1.065,0.728,0.361,0.624,0.583,��쓌,9.3,��
2021/07/28,09:50,0.591,0.856,0.554,1.061,0.730,0.361,0.625,0.583,��쓌,8.4,��
2021/07/28,10:00,0.591,0.860,0.554,1.066,0.729,0.362,0.623,0.583,��,6.3,��
2021/07/28,10:10,0.592,0.858,0.555,1.064,0.732,0.362,0.624,0.583,��쓌,7.7,��
2021/07/28,10:20,0.592,0.857,0.555,1.066,0.732,0.362,0.623,0.583,��쓌,10.5,��
2021/07/28,10:30,0.591,0.858,0.556,1.066,0.734,0.362,0.623,0.583,��쓌,9.8,��
2021/07/28,10:40,0.593,0.858,0.557,1.067,0.732,0.362,0.623,0.584,��쓌,9.8,��
2021/07/28,10:50,0.590,0.860,0.554,1.066,0.734,0.362,0.625,0.585,��쓌,9.7,��
2021/07/28,11:00,0.593,0.861,0.556,1.068,0.734,0.362,0.625,0.585,��쓌,9.7,��
2021/07/28,11:10,0.592,0.862,0.556,1.068,0.735,0.362,0.625,0.585,��쓌,9.0,��
2021/07/28,11:20,0.594,0.866,0.557,1.066,0.736,0.363,0.625,0.583,��쓌,11.0,��
2021/07/28,11:30,0.593,0.865,0.557,1.069,0.735,0.362,0.627,0.584,��쓌,11.6,��
2021/07/28,11:40,0.593,0.864,0.556,1.066,0.736,0.361,0.626,0.586,��쓌,11.6,��
2021/07/28,11:50,0.594,0.865,0.557,1.067,0.737,0.363,0.625,0.585,��쓌,11.9,��
2021/07/28,12:00,0.595,0.866,0.558,1.069,0.737,0.363,0.626,0.585,��쓌,11.6,��
2021/07/28,12:10,0.595,0.868,0.557,1.068,0.736,0.363,0.625,0.585,��쓌,10.9,��
2021/07/28,12:20,0.595,0.866,0.558,1.069,0.736,0.363,0.626,0.586,��쓌,10.5,��
2021/07/28,12:30,0.595,0.867,0.557,1.070,0.738,0.363,0.626,0.587,��쓌,10.6,��
2021/07/28,12:40,0.594,0.867,0.558,1.072,0.739,0.363,0.628,0.587,��쓌,13.3,��
2021/07/28,12:50,0.597,0.866,0.560,1.070,0.741,0.364,0.628,0.587,��쓌,13.1,��
2021/07/28,13:00,0.597,0.867,0.558,1.071,0.742,0.365,0.626,0.587,��쓌,13.0,��
2021/07/28,13:10,0.595,0.868,0.561,1.073,0.742,0.364,0.627,0.587,��쓌,12.4,��
2021/07/28,13:20,0.597,0.870,0.560,1.070,0.743,0.364,0.627,0.587,��쓌,12.0,��
2021/07/28,13:30,0.598,0.868,0.559,1.070,0.741,0.365,0.628,0.587,��쓌,11.1,��
2021/07/28,13:40,0.596,0.866,0.558,1.073,0.743,0.365,0.628,0.588,��쓌,11.4,��
2021/07/28,13:50,0.599,0.870,0.560,1.071,0.743,0.365,0.628,0.589,��쓌,11.7,��
2021/07/28,14:00,0.596,0.868,0.561,1.073,0.743,0.365,0.627,0.588,��쓌,12.0,��
2021/07/28,14:10,0.600,0.868,0.559,1.072,0.743,0.364,0.628,0.588,��쓌,13.3,��
2021/07/28,14:20,0.597,0.871,0.561,1.072,0.744,0.365,0.629,0.587,��쓌,13.0,��
2021/07/28,14:30,0.597,0.870,0.559,1.073,0.741,0.364,0.628,0.588,��쓌,11.9,��
2021/07/28,14:40,0.597,0.870,0.560,1.075,0.743,0.364,0.629,0.587,��쓌,12.5,��
2021/07/28,14:50,0.597,0.870,0.560,1.075,0.744,0.364,0.629,0.586,��,10.3,��
2021/07/28,15:00,0.598,0.870,0.558,1.075,0.744,0.366,0.628,0.586,��,8.8,��
2021/07/28,15:10,0.596,0.871,0.559,1.074,0.746,0.365,0.627,0.585,��,7.7,��
2021/07/28,15:20,0.597,0.871,0.558,1.074,0.746,0.364,0.628,0.585,��,8.8,��
2021/07/28,15:30,0.598,0.871,0.558,1.075,0.743,0.365,0.629,0.587,��,7.3,��
2021/07/28,15:40,0.597,0.870,0.560,1.073,0.745,0.365,0.626,0.585,��,7.2,��
2021/07/28,15:50,0.597,0.871,0.559,1.074,0.744,0.365,0.626,0.585,��,6.4,��
2021/07/28,16:00,0.597,0.871,0.560,1.074,0.745,0.364,0.628,0.586,��,6.8,��
2021/07/28,16:10,0.598,0.873,0.558,1.075,0.746,0.365,0.628,0.587,��쓌,7.5,��
2021/07/28,16:20,0.597,0.870,0.559,1.075,0.747,0.365,0.629,0.587,��쓌,8.0,��
2021/07/28,16:30,0.598,0.875,0.559,1.077,0.745,0.364,0.629,0.586,��쓌,8.6,��
2021/07/28,16:40,0.596,0.872,0.561,1.076,0.748,0.366,0.629,0.588,��쓌,8.2,��
2021/07/28,16:50,0.596,0.872,0.561,1.076,0.748,0.364,0.630,0.588,��쓌,8.9,��
2021/07/28,17:00,0.596,0.872,0.561,1.076,0.747,0.364,0.627,0.588,��,9.7,��
2021/07/28,17:10,0.597,0.873,0.561,1.077,0.748,0.364,0.630,0.587,��,7.8,��
2021/07/28,17:20,0.597,0.875,0.562,1.077,0.750,0.363,0.628,0.586,��,7.1,�L
2021/07/28,17:30,0.596,0.875,0.561,1.076,0.749,0.365,0.628,0.586,��,8.2,�L
2021/07/28,17:40,0.598,0.875,0.562,1.077,0.750,0.365,0.628,0.587,��,8.4,�L
2021/07/28,17:50,0.596,0.877,0.564,1.078,0.750,0.363,0.628,0.587,��,7.6,�L
2021/07/28,18:00,0.597,0.875,0.563,1.076,0.750,0.364,0.628,0.588,��,6.7,�L
2021/07/28,18:10,0.597,0.872,0.562,1.077,0.751,0.364,0.628,0.587,��쐼,5.6,�L
2021/07/28,18:20,0.596,0.867,0.561,1.075,0.747,0.364,0.628,0.585,��쓌,8.1,�L
2021/07/28,18:30,0.594,0.864,0.560,1.075,0.742,0.366,0.626,0.585,��,5.3,�L
2021/07/28,18:40,0.591,0.861,0.557,1.068,0.737,0.362,0.624,0.585,��,5.5,�L
2021/07/28,18:50,0.589,0.857,0.557,1.066,0.735,0.364,0.624,0.585,��쐼,4.3,�L
2021/07/28,19:00,0.589,0.854,0.556,1.061,0.732,0.366,0.623,0.583,��쐼,6.1,�L
2021/07/28,19:10,0.587,0.852,0.556,1.056,0.729,0.364,0.621,0.584,��쐼,2.9,�L
2021/07/28,19:20,0.587,0.852,0.556,1.057,0.731,0.365,0.622,0.584,��,5.4,�L
2021/07/28,19:30,0.591,0.853,0.557,1.057,0.733,0.365,0.622,0.585,��,5.8,�L
2021/07/28,19:40,0.590,0.858,0.557,1.056,0.732,0.367,0.621,0.583,��,4.4,�L
2021/07/28,19:50,0.591,0.857,0.558,1.055,0.734,0.365,0.622,0.584,��쐼,5.6,�L
2021/07/28,20:00,0.590,0.858,0.557,1.056,0.734,0.365,0.621,0.583,��,6.8,�L
2021/07/28,20:10,0.590,0.857,0.555,1.058,0.733,0.364,0.620,0.583,��,5.8,��
2021/07/28,20:20,0.588,0.857,0.555,1.057,0.734,0.362,0.621,0.582,��,4.6,��
2021/07/28,20:30,0.587,0.857,0.553,1.058,0.732,0.363,0.621,0.582,��,4.2,��
2021/07/28,20:40,0.588,0.856,0.554,1.057,0.733,0.361,0.621,0.581,��,3.2,��
2021/07/28,20:50,0.587,0.857,0.553,1.056,0.733,0.362,0.619,0.582,��,2.3,��
2021/07/28,21:00,0.587,0.855,0.554,1.056,0.733,0.362,0.619,0.583,��쐼,2.8,��
2021/07/28,21:10,0.585,0.857,0.552,1.058,0.733,0.361,0.621,0.582,��,3.9,��
2021/07/28,21:20,0.586,0.858,0.552,1.058,0.733,0.360,0.621,0.581,��,3.9,��
2021/07/28,21:30,0.585,0.859,0.552,1.059,0.733,0.361,0.621,0.581,��,3.4,��
2021/07/28,21:40,0.587,0.858,0.553,1.058,0.733,0.359,0.621,0.581,��쓌,3.7,��
2021/07/28,21:50,0.586,0.858,0.551,1.059,0.732,0.359,0.620,0.582,��쓌,3.1,��
2021/07/28,22:00,0.585,0.859,0.552,1.060,0.733,0.360,0.621,0.583,��쓌,4.1,��
2021/07/28,22:10,0.586,0.859,0.551,1.056,0.734,0.360,0.619,0.582,��,2.6,��
2021/07/28,22:20,0.587,0.858,0.553,1.058,0.736,0.359,0.621,0.584,��쐼,2.3,��
2021/07/28,22:30,0.584,0.860,0.552,1.060,0.734,0.359,0.622,0.584,�쐼,2.0,��
2021/07/28,22:40,0.586,0.860,0.551,1.058,0.735,0.360,0.622,0.583,�쐼,0.9,��
2021/07/28,22:50,0.586,0.859,0.553,1.059,0.735,0.361,0.622,0.583,���k��,1.1,��
2021/07/28,23:00,0.585,0.862,0.553,1.060,0.735,0.361,0.622,0.583,�k��,1.4,��
2021/07/28,23:10,0.587,0.860,0.554,1.061,0.738,0.362,0.623,0.585,���k��,1.5,��
2021/07/28,23:20,0.586,0.862,0.553,1.061,0.736,0.360,0.622,0.583,�k��,1.2,��
2021/07/28,23:30,0.589,0.861,0.553,1.061,0.734,0.362,0.623,0.583,�k,0.6,��
2021/07/28,23:40,0.590,0.864,0.555,1.060,0.735,0.360,0.621,0.583,�k��,1.2,��
2021/07/28,23:50,0.588,0.863,0.553,1.061,0.738,0.361,0.623,0.584,-,CALM,��
